Flag for Norway Weather past 2 weeks in Porsgrunn, Norway

Now
50 °F

Cool.


Feels Like: 48 °F
Forecast: 43 / 63 °F
Wind: 6 mph from West

Location: Jomfruland Fyr

Current Time: Jun 4, 2015 at 1:46:08 AM

Latest Report: Jun 4, 2015 at 1:00 AM


Visibility: N/A

Pressure: 30.03 "Hg

Humidity: 64%

Dew point: 38 °F

Location of PorsgrunnLocation

Historic Weather in Porsgrunn — Graph

°F

Porsgrunn temperature yesterday

Maximum temperature yesterday: 60 °F (at 6:00 PM)
Minimum temperature yesterday: 50 °F (at 4:00 AM)
Average temperature yesterday: 54 °F

Past Weeks' High & Low Weather Summary

 TemperatureHumidityPressure
High63 °F (May 23, 2:00 PM)95% (May 25, 1:00 AM)30.04 "Hg (May 25, 1:00 AM)
Low40 °F (May 24, 5:00 AM)27% (May 23, 6:00 PM)29.26 "Hg (Jun 2, 4:00 PM)
Average51 °F72%29.72 "Hg
* Reported Midnight between May 19 and May 20 — Midnight between Jun 3 and Jun 4, Porsgrunn, Weather by CustomWeather, © 2015

Note: Actual official high and low records may vary slightly from our data, if they occured in-between our weather recording intervals... More about our weather records

Advertising

Porsgrunn weather history for previous 24 hours

 ConditionsComfort  
Time TempWeatherWind HumidityBarometerVisibility
12:00 AM
Thu, Jun 4
51 °FCool.10 mph58%30.00 "HgN/A
11:00 PM
Wed, Jun 3
52 °FCool.7 mph56%29.97 "HgN/A
10:00 PM53 °FCool.10 mph50%29.93 "HgN/A
9:00 PM56 °FRefreshingly cool.8 mph37%29.89 "HgN/A
8:00 PM57 °FRefreshingly cool.10 mph41%29.83 "HgN/A
7:00 PM59 °FRefreshingly cool.14 mph43%29.79 "HgN/A
6:00 PM60 °FRefreshingly cool.13 mph40%29.75 "HgN/A
5:00 PM59 °FRefreshingly cool.14 mph46%29.72 "HgN/A
4:00 PM60 °FRefreshingly cool.13 mph46%29.69 "HgN/A
3:00 PM59 °FRefreshingly cool.14 mph42%29.65 "HgN/A
2:00 PM58 °FRefreshingly cool.13 mph46%29.62 "HgN/A
1:00 PM58 °FRefreshingly cool.13 mph46%29.58 "HgN/A
12:00 PM56 °FRefreshingly cool.12 mph54%29.54 "HgN/A
11:00 AM54 °FCool.13 mph64%29.50 "HgN/A
10:00 AM54 °FCool.13 mph61%29.47 "HgN/A
9:00 AM53 °FCool.12 mph63%29.44 "HgN/A
8:00 AM52 °FCool.13 mph65%29.41 "HgN/A
7:00 AM51 °FCool.10 mph69%29.38 "HgN/A
6:00 AM50 °FCool.12 mph75%29.35 "HgN/A
5:00 AM50 °FCool.13 mph81%29.32 "HgN/A
4:00 AM50 °FCool.12 mph87%29.29 "HgN/A
3:00 AM50 °FCool.14 mph87%29.29 "HgN/A
2:00 AM50 °FCool.14 mph87%29.29 "HgN/A
1:00 AM50 °FCool.15 mph88%29.29 "HgN/A
Weather by CustomWeather, © 2015

See weather overviewHow to use our weather pages